STARLINK-4178 (53277 NORAD) Tracking and Keplerian Element Data

This shows tracking and keplerian element data for the satellite.

Feedback or suggestion? Click here.




ElementValue
Catalog53277
NameSTARLINK-4178
Epoch Orbit130
Epoch Day269.91667824
Epoch Year2022
RAAN84.8324
Inclination53.2171
Eccentricity0.0001764
Argument of Perigee29.4136
Mean Anonmoly45.2148
Mean Motion15.63803332
Decay Rate-0.01074523
L11 53277U 22086AM 22269.91667824 -.01074523 00000+0 -12370-1 0 9993
L22 53277 53.2171 84.8324 0001764 29.4136 45.2148 15.63803332 1309

Live tracking and technical data element details for STARLINK-4178 (NORAD 53277). STARLINK-4178 can be tracked NOW for your location showing map with azimuth and elevation plus other details from your city location.

Track the satellite on the map from your city or location and see movement details for azimuth, elevation, latitude, longitude, range, height, and movement on the map or in text.







IsCatalogInMostPopularTable: catalog: 53277, numindb: 4
Update: records affected: 1



GetName: 53277 STARLINK-4178

Hit Count: updated at: Thu, 29 Sep 2022 11:12:53 GMT